Location: Gaast
(52.9002°N, 5.8891°E)
Time: 07:20:33
(UTC+00:00)

ISS - Pass Details

Date: 18 November 2025
Orbit: 416 x 420 km, 51.6° (Epoch: 11 December)

Event Time Altitude Azimuth Distance (km) Brightness Sun altitude
Rises 16:21:48 0° 215° (SW) 2,362 1.2 -6.8°
Reaches altitude 10° 16:24:11 10° 199° (SSW) 1,500 -0.3 -7.1°
Maximum altitude 16:26:50 21° 147° (SSE) 992 -2.0 -7.5°
Drops below altitude 10° 16:29:28 10° 96° (E) 1,502 -1.5 -7.8°
Enters shadow 16:29:47 - 93° (E) 1,609 -1.4 -7.9°
